Wisconsin Rapids, WI

6:24 AM CST on January 16, 2018 (GMT -0600)
Alexander Field South Wood County

Weather History for KISW - September, 2013

Change the Weather History Date:

Sunday, September 1, 2013

  Actual Average Record
Temperature  
Mean Temperature 74 °F -  
Max Temperature 84 °F 77 °F 96 °F (1953)
Min Temperature 66 °F 52 °F 32 °F (1992)
Cooling Degree Days 9    
Growing Degree Days 24 (Base 50)    
Moisture  
Dew Point 62 °F    
Average Humidity 68    
Maximum Humidity 96    
Minimum Humidity 41    
Precipitation  
Precipitation 0.00 in - - ()
Sea Level Pressure  
Sea Level Pressure 29.79 in    
Wind  
Wind Speed 8 mph (West)    
Max Wind Speed 16 mph    
Max Gust Speed 28 mph    
Visibility 10 miles    
Events      
Averages and records for this station are not official NWS values.
T = Trace of Precipitation, MM = Missing Value Source: NWS Daily Summary

Daily Weather History Graph

Daily Weather History Graph

Search for Another Location

Airport or City:

Trip Planner

Search our weather history database for the weather conditions in past years. The results will help you decide how hot, cold, wet, or windy it might be!

Date:

Astronomy

Sep. 01, 2013 Rise Set
Actual Time 6:22 AM CDT 7:35 PM CDT
Civil Twilight 5:52 AM CDT 8:05 PM CDT
Nautical Twilight 5:16 AM CDT 8:40 PM CDT
Astronomical Twilight 4:38 AM CDT 9:18 PM CDT
Moon 2:38 AM CDT (9/1) 5:17 PM CDT (9/1)
Length of Visible Light 14h 12m
Length of Day
13h 12m
Waning Crescent, 13% of the Moon is Illuminated
Sep 1
Waning Crescent
Sep 5
New
Sep 12
First Quarter
Sep 19
Full
Sep 26
Last Quarter

Hourly Weather History & Observations

Time (CDT) Temp. Heat Index Dew Point Humidity Pressure Visibility Wind Dir Wind Speed Gust Speed Precip Events Conditions
12:54 AM 68.0 °F - 63.0 °F 84% 29.79 in 10.0 mi SSE 5.8 mph - N/A   Clear
1:54 AM 66.9 °F - 63.0 °F 87% 29.75 in 10.0 mi SE 8.1 mph - N/A   Clear
2:54 AM 68.0 °F - 63.0 °F 84% 29.77 in 10.0 mi South 3.5 mph - N/A   Clear
3:54 AM 68.0 °F - 64.0 °F 87% 29.77 in 10.0 mi South 5.8 mph - N/A   Clear
4:54 AM 68.0 °F - 66.0 °F 93% 29.76 in 10.0 mi South 4.6 mph - N/A   Clear
5:54 AM 66.9 °F - 64.9 °F 93% 29.77 in 10.0 mi Calm Calm - N/A   Partly Cloudy
6:54 AM 68.0 °F - 66.9 °F 96% 29.77 in 9.0 mi South 5.8 mph - N/A   Overcast
7:54 AM 71.1 °F - 66.9 °F 87% 29.76 in 10.0 mi SW 8.1 mph - N/A   Overcast
8:54 AM 73.9 °F - 66.9 °F 79% 29.77 in 10.0 mi SW 8.1 mph - N/A   Mostly Cloudy
9:41 AM 75.2 °F - 66.2 °F 73% 29.79 in 10.0 mi SW 6.9 mph - N/A   Overcast
9:54 AM 75.9 °F - 66.9 °F 74% 29.77 in 10.0 mi West 9.2 mph - N/A   Overcast
10:54 AM 77.0 °F - 66.0 °F 69% 29.76 in 10.0 mi Variable 6.9 mph - N/A   Mostly Cloudy
11:07 AM 80.6 °F 82.7 °F 66.2 °F 61% 29.77 in 10.0 mi West 11.5 mph - N/A   Mostly Cloudy
11:14 AM 78.8 °F - 64.4 °F 61% 29.77 in 10.0 mi West 11.5 mph - N/A   Mostly Cloudy
11:24 AM 78.8 °F - 64.4 °F 61% 29.77 in 10.0 mi WNW 11.5 mph - N/A   Mostly Cloudy
11:54 AM 82.0 °F 82.4 °F 60.1 °F 47% 29.75 in 10.0 mi WNW 11.5 mph - N/A   Partly Cloudy
12:54 PM 82.0 °F 82.1 °F 59.0 °F 45% 29.75 in 10.0 mi NW 16.1 mph 23.0 mph N/A   Clear
1:54 PM 82.9 °F 82.4 °F 57.0 °F 41% 29.76 in 10.0 mi WNW 16.1 mph 21.9 mph N/A   Clear
2:54 PM 82.0 °F 81.7 °F 57.0 °F 42% 29.77 in 10.0 mi North 11.5 mph - N/A   Scattered Clouds
3:54 PM 80.1 °F 80.1 °F 55.0 °F 42% 29.78 in 10.0 mi NNW 16.1 mph 27.6 mph N/A   Scattered Clouds
4:54 PM 78.1 °F - 55.9 °F 46% 29.79 in 10.0 mi NW 13.8 mph - N/A   Mostly Cloudy
5:54 PM 77.0 °F - 57.0 °F 50% 29.80 in 10.0 mi NNW 8.1 mph - N/A   Mostly Cloudy
6:54 PM 75.0 °F - 57.0 °F 53% 29.82 in 10.0 mi NW 6.9 mph - N/A   Overcast
7:54 PM 73.0 °F - 57.9 °F 59% 29.82 in 10.0 mi NW 5.8 mph - N/A   Overcast
8:54 PM 71.1 °F - 59.0 °F 66% 29.84 in 10.0 mi WNW 4.6 mph - N/A   Overcast
9:54 PM 69.1 °F - 59.0 °F 70% 29.85 in 10.0 mi NW 6.9 mph - N/A   Partly Cloudy
10:54 PM 69.1 °F - 59.0 °F 70% 29.87 in 10.0 mi NNW 9.2 mph - N/A   Mostly Cloudy
11:54 PM 66.9 °F - 59.0 °F 76% 29.88 in 10.0 mi NNW 4.6 mph - N/A   Mostly Cloudy